No particular awareness of the weather is required.    There are no Weather-warnings


Meteo18 Weather Cam more information Meteo18 Weather Cam


Thunder radar more information blitzortung!


Rain radar more information rain snow radar


Visit our other weather sites:

Template documentation
and downloads

And another site



Weather Underground History page Text

Daily Summary for October 23, 2017 Units:  English    Metric   Both
« Previous Day
Next Day »
Daily Weekly Monthly Yearly Custom
  High: Low: Average:
Temperature: TemperatureC °F 8.8 °F 10.7 °F
Dew Point: DewpointC °F 7.1 °F 9 °F
Humidity: Humidity % 83 % 89 %
Wind Speed: WindSpeedKMH mph 0.0 mph 5.3 mph
Wind Gust: WindSpeedGustKMH mph - -
Wind:- - WSW
Pressure: PressurehPa in 1024.9 in -
Precipitation: 0.5 in    
Historical Graphs
 
 
Tabular Data for October 23, 2017
Time Temperature Dew Point Pressure Wind Wind Speed Wind Gust Humidity Rainfall Rate (Hourly)
TemperatureC °F DewpointC °F PressurehPa in Calm     Humidity % HourlyPrecipMM in
00:02 9.8 °F 7.4 °F 1025.3 in SW 9.7 mph 17.7 mph 85 % 0.0 in
00:12 9.8 °F 7.4 °F 1025.3 in SW 9.7 mph 19.3 mph 85 % 0.0 in
00:17 9.7 °F 7.3 °F 1025.3 in West 8.0 mph 19.3 mph 85 % 0.0 in
00:22 9.8 °F 7.4 °F 1025.3 in SW 8.0 mph 22.5 mph 85 % 0.0 in
00:32 9.8 °F 7.4 °F 1025.6 in WSW 9.7 mph 22.5 mph 85 % 0.0 in
00:37 9.7 °F 7.3 °F 1025.6 in WSW 8.0 mph 22.5 mph 85 % 0.0 in
00:42 9.7 °F 7.3 °F 1025.3 in WSW 8.0 mph 14.5 mph 85 % 0.0 in
00:47 9.7 °F 7.3 °F 1025.3 in West 9.7 mph 11.3 mph 85 % 0.0 in
00:57 9.6 °F 7.4 °F 1025.6 in West 6.4 mph 11.3 mph 86 % 0.0 in
01:02 9.6 °F 7.4 °F 1025.6 in West 1.6 mph 11.3 mph 86 % 0.0 in
01:12 9.6 °F 7.4 °F 1025.3 in West 3.2 mph 9.7 mph 86 % 0.0 in
01:17 9.6 °F 7.4 °F 1025.6 in WSW 1.6 mph 6.4 mph 86 % 0.0 in
01:22 9.6 °F 7.4 °F 1025.3 in West 6.4 mph 6.4 mph 86 % 0.0 in
01:32 9.7 °F 7.3 °F 1025.6 in West 3.2 mph 12.9 mph 85 % 0.0 in
01:37 9.8 °F 7.4 °F 1025.3 in WSW 3.2 mph 12.9 mph 85 % 0.0 in
01:42 9.8 °F 7.2 °F 1025.3 in WSW 3.2 mph 12.9 mph 84 % 0.0 in
01:47 9.8 °F 7.2 °F 1025.3 in West 1.6 mph 8.0 mph 84 % 0.0 in
01:52 9.8 °F 7.2 °F 1025.3 in WSW 8.0 mph 8.0 mph 84 % 0.0 in
01:57 9.8 °F 7.2 °F 1025.3 in West 8.0 mph 11.3 mph 84 % 0.0 in
02:02 9.8 °F 7.2 °F 1025.3 in Calm   11.3 mph 84 % 0.0 in
02:07 9.8 °F 7.2 °F 1025.3 in WSW 3.2 mph 12.9 mph 84 % 0.0 in
02:12 9.8 °F 7.2 °F 1025.3 in SW 4.8 mph 12.9 mph 84 % 0.0 in
02:17 9.8 °F 7.2 °F 1025.3 in West 8.0 mph 9.7 mph 84 % 0.0 in
02:22 9.8 °F 7.2 °F 1025.3 in WSW 8.0 mph 9.7 mph 84 % 0.0 in
02:32 9.8 °F 7.2 °F 1025.3 in WNW 1.6 mph 9.7 mph 84 % 0.0 in
02:37 9.8 °F 7.2 °F 1025.3 in WSW 1.6 mph 11.3 mph 84 % 0.0 in
02:42 9.7 °F 7.1 °F 1025.3 in West 1.6 mph 11.3 mph 84 % 0.0 in
02:47 9.7 °F 7.3 °F 1025.3 in WSW 3.2 mph 9.7 mph 85 % 0.0 in
02:52 9.7 °F 7.3 °F 1025.3 in SW 1.6 mph 9.7 mph 85 % 0.0 in
02:57 9.7 °F 7.3 °F 1025.3 in Calm   11.3 mph 85 % 0.0 in
03:02 9.6 °F 7.2 °F 1025.3 in Calm   11.3 mph 85 % 0.0 in
03:12 9.6 °F 7.2 °F 1025.3 in NNW 1.6 mph 11.3 mph 85 % 0.0 in
03:17 9.6 °F 7.2 °F 1025.3 in Calm   6.4 mph 85 % 0.0 in
03:22 9.6 °F 7.2 °F 1025.3 in Calm   6.4 mph 85 % 0.0 in
03:27 9.6 °F 7.4 °F 1024.9 in WSW 1.6 mph 3.2 mph 86 % 0.0 in
03:32 9.5 °F 7.3 °F 1025.3 in WNW 1.6 mph 3.2 mph 86 % 0.0 in
03:37 9.6 °F 7.4 °F 1025.3 in Calm   3.2 mph 86 % 0.0 in
03:42 9.5 °F 7.3 °F 1025.3 in Calm   3.2 mph 86 % 0.0 in
03:52 9.6 °F 7.4 °F 1025.3 in Calm   3.2 mph 86 % 0.0 in
04:02 9.6 °F 7.2 °F 1024.9 in Calm   4.8 mph 85 % 0.0 in
04:07 9.6 °F 7.2 °F 1024.9 in North 3.2 mph 4.8 mph 85 % 0.0 in
04:12 9.7 °F 7.3 °F 1025.3 in WNW 1.6 mph 4.8 mph 85 % 0.0 in
04:17 9.7 °F 7.1 °F 1024.9 in WSW 1.6 mph 6.4 mph 84 % 0.0 in
04:22 9.9 °F 7.3 °F 1024.9 in NW 6.4 mph 6.4 mph 84 % 0.0 in
04:32 10.0 °F 7.2 °F 1024.9 in WSW 4.8 mph 12.9 mph 83 % 0.0 in
04:37 9.9 °F 7.3 °F 1024.9 in West 4.8 mph 16.1 mph 84 % 0.0 in
04:42 9.9 °F 7.3 °F 1025.3 in West 3.2 mph 16.1 mph 84 % 0.0 in
04:47 9.9 °F 7.3 °F 1024.9 in West 4.8 mph 14.5 mph 84 % 0.0 in
04:52 9.9 °F 7.3 °F 1024.9 in WNW 8.0 mph 14.5 mph 84 % 0.0 in
05:02 9.8 °F 7.4 °F 1024.9 in WSW 11.3 mph 17.7 mph 85 % 0.0 in
05:17 9.7 °F 7.3 °F 1024.9 in WSW 6.4 mph 17.7 mph 85 % 0.0 in
05:22 9.8 °F 7.4 °F 1024.9 in West 12.9 mph 17.7 mph 85 % 0.0 in
05:32 9.7 °F 7.3 °F 1024.9 in West 6.4 mph 16.1 mph 85 % 0.0 in
05:42 9.7 °F 7.3 °F 1025.3 in West 3.2 mph 16.1 mph 85 % 0.0 in
05:47 9.6 °F 7.4 °F 1025.3 in WNW 8.0 mph 16.1 mph 86 % 0.0 in
05:52 9.6 °F 7.4 °F 1025.3 in West 4.8 mph 16.1 mph 86 % 0.0 in
06:02 9.6 °F 7.4 °F 1025.3 in WSW 9.7 mph 12.9 mph 86 % 0.0 in
06:12 9.7 °F 7.3 °F 1025.3 in West 19.3 mph 19.3 mph 85 % 0.0 in
06:17 9.6 °F 7.4 °F 1025.3 in WSW 8.0 mph 19.3 mph 86 % 0.0 in
06:22 9.6 °F 7.4 °F 1025.3 in SW 4.8 mph 19.3 mph 86 % 0.0 in
06:27 9.6 °F 7.4 °F 1025.3 in West 9.7 mph 20.9 mph 86 % 0.0 in
06:32 9.5 °F 7.3 °F 1025.6 in WSW 6.4 mph 20.9 mph 86 % 0.0 in
06:37 9.5 °F 7.3 °F 1025.6 in WSW 9.7 mph 20.9 mph 86 % 0.0 in
06:42 9.5 °F 7.3 °F 1025.6 in West 8.0 mph 20.9 mph 86 % 0.0 in
06:47 9.4 °F 7.3 °F 1025.6 in West 4.8 mph 20.9 mph 87 % 0.0 in
06:52 9.4 °F 7.3 °F 1025.6 in WSW 9.7 mph 20.9 mph 87 % 0.0 in
06:57 9.3 °F 7.2 °F 1025.6 in WSW 1.6 mph 14.5 mph 87 % 0.0 in
07:02 9.3 °F 7.4 °F 1025.6 in West 4.8 mph 14.5 mph 88 % 0.0 in
07:12 9.2 °F 7.3 °F 1025.3 in West 6.4 mph 14.5 mph 88 % 0.0 in
07:17 9.3 °F 7.4 °F 1025.3 in WSW 9.7 mph 14.5 mph 88 % 0.0 in
07:27 9.3 °F 7.4 °F 1025.6 in West 9.7 mph 17.7 mph 88 % 0.0 in
07:32 9.2 °F 7.3 °F 1025.3 in WSW 11.3 mph 17.7 mph 88 % 0.0 in
07:42 8.9 °F 7.3 °F 1025.3 in West 9.7 mph 17.7 mph 90 % 0.0 in
07:47 8.9 °F 7.3 °F 1025.3 in West 6.4 mph 19.3 mph 90 % 0.0 in
07:52 8.9 °F 7.3 °F 1025.3 in WSW 8.0 mph 19.3 mph 90 % 0.0 in
07:57 8.8 °F 7.2 °F 1025.3 in WSW 11.3 mph 19.3 mph 90 % 0.0 in
08:02 8.8 °F 7.2 °F 1025.3 in SW 6.4 mph 19.3 mph 90 % 0.0 in
08:12 8.8 °F 7.2 °F 1025.6 in WSW 6.4 mph 19.3 mph 90 % 0.0 in
08:22 8.8 °F 7.2 °F 1025.3 in West 8.0 mph 14.5 mph 90 % 0.0 in
08:32 8.9 °F 7.3 °F 1025.3 in West 4.8 mph 16.1 mph 90 % 0.0 in
08:42 9.1 °F 7.4 °F 1025.6 in WSW 8.0 mph 16.1 mph 89 % 0.0 in
08:52 9.1 °F 7.4 °F 1025.6 in West 9.7 mph 16.1 mph 89 % 0.0 in
08:57 9.1 °F 7.4 °F 1025.6 in WSW 12.9 mph 17.7 mph 89 % 0.0 in
09:02 9.1 °F 7.4 °F 1025.6 in WSW 14.5 mph 17.7 mph 89 % 0.0 in
09:12 9.1 °F 7.5 °F 1026.0 in WSW 8.0 mph 19.3 mph 90 % 0.0 in
09:17 9.0 °F 7.4 °F 1026.0 in West 9.7 mph 17.7 mph 90 % 0.0 in
09:22 9.0 °F 7.4 °F 1026.0 in West 12.9 mph 17.7 mph 90 % 0.0 in
09:32 9.1 °F 7.5 °F 1026.3 in West 6.4 mph 17.7 mph 90 % 0.0 in
09:42 9.1 °F 7.5 °F 1026.3 in SW 6.4 mph 16.1 mph 90 % 0.0 in
09:52 9.2 °F 7.6 °F 1026.6 in West 9.7 mph 16.1 mph 90 % 0.0 in
10:02 9.3 °F 7.7 °F 1026.6 in West 4.8 mph 14.5 mph 90 % 0.0 in
10:12 9.4 °F 7.8 °F 1026.3 in SW 1.6 mph 14.5 mph 90 % 0.0 in
10:17 9.4 °F 7.8 °F 1026.3 in WSW 8.0 mph 12.9 mph 90 % 0.0 in
10:27 9.5 °F 7.9 °F 1026.3 in SSW 1.6 mph 12.9 mph 90 % 0.0 in
10:32 9.6 °F 8.0 °F 1026.3 in WSW 8.0 mph 12.9 mph 90 % 0.0 in
10:37 9.7 °F 8.1 °F 1026.6 in West 8.0 mph 11.3 mph 90 % 0.0 in
10:42 9.7 °F 8.1 °F 1026.6 in WSW 3.2 mph 11.3 mph 90 % 0.0 in
10:47 9.8 °F 8.2 °F 1026.6 in WSW 6.4 mph 14.5 mph 90 % 0.0 in
10:52 9.8 °F 8.1 °F 1026.6 in West 3.2 mph 14.5 mph 89 % 0.0 in
10:57 9.8 °F 8.2 °F 1026.6 in WSW 3.2 mph 12.9 mph 90 % 0.0 in
11:02 9.9 °F 8.3 °F 1026.6 in SSW 1.6 mph 12.9 mph 90 % 0.0 in
11:12 9.9 °F 8.3 °F 1026.6 in SW 4.8 mph 11.3 mph 90 % 0.0 in
11:17 9.9 °F 8.3 °F 1026.3 in SW 4.8 mph 9.7 mph 90 % 0.0 in
11:22 10.0 °F 8.4 °F 1026.3 in West 1.6 mph 9.7 mph 90 % 0.0 in
11:27 10.1 °F 8.5 °F 1026.3 in SW 8.0 mph 9.7 mph 90 % 0.0 in
11:32 10.1 °F 8.7 °F 1026.3 in West 8.0 mph 9.7 mph 91 % 0.0 in
11:37 10.2 °F 8.6 °F 1026.3 in WSW 9.7 mph 20.9 mph 90 % 0.0 in
11:42 10.1 °F 8.7 °F 1026.3 in SW 6.4 mph 20.9 mph 91 % 0.0 in
11:52 10.2 °F 8.6 °F 1026.6 in West 11.3 mph 19.3 mph 90 % 0.0 in
12:12 10.5 °F 8.9 °F 1026.6 in WSW 8.0 mph 14.5 mph 90 % 0.0 in
12:17 10.6 °F 9.0 °F 1026.6 in WSW 1.6 mph 11.3 mph 90 % 0.0 in
12:22 10.7 °F 9.1 °F 1026.6 in WSW 4.8 mph 11.3 mph 90 % 0.0 in
12:32 10.9 °F 9.2 °F 1027.0 in Calm   11.3 mph 89 % 0.0 in
12:37 11.0 °F 9.3 °F 1027.0 in SW 3.2 mph 11.3 mph 89 % 0.0 in
12:42 11.1 °F 9.4 °F 1027.0 in SSW 3.2 mph 11.3 mph 89 % 0.0 in
12:52 11.2 °F 9.3 °F 1026.6 in WNW 4.8 mph 11.3 mph 88 % 0.0 in
12:57 11.3 °F 9.4 °F 1026.6 in West 1.6 mph 9.7 mph 88 % 0.0 in
13:07 11.4 °F 9.3 °F 1026.6 in West 1.6 mph 11.3 mph 87 % 0.0 in
13:12 11.5 °F 9.4 °F 1026.6 in Calm   11.3 mph 87 % 0.0 in
13:17 11.6 °F 9.5 °F 1027.0 in West 4.8 mph 11.3 mph 87 % 0.0 in
13:22 11.7 °F 9.4 °F 1026.6 in West 9.7 mph 11.3 mph 86 % 0.0 in
13:32 12.0 °F 9.7 °F 1026.6 in SW 6.4 mph 14.5 mph 86 % 0.0 in
13:42 12.2 °F 9.6 °F 1026.6 in WSW 4.8 mph 14.5 mph 84 % 0.0 in
13:47 12.3 °F 9.7 °F 1026.6 in SW 6.4 mph 14.5 mph 84 % 0.0 in
13:52 12.4 °F 9.8 °F 1026.6 in SW 4.8 mph 14.5 mph 84 % 0.0 in
14:02 12.6 °F 10.1 °F 1026.3 in West 9.7 mph 14.5 mph 85 % 0.0 in
14:12 12.7 °F 10.1 °F 1026.3 in SW 3.2 mph 12.9 mph 84 % 0.0 in
14:17 12.7 °F 9.9 °F 1026.0 in SW 16.1 mph 17.7 mph 83 % 0.0 in
14:22 12.7 °F 10.1 °F 1026.3 in WSW 4.8 mph 17.7 mph 84 % 0.0 in
14:32 12.7 °F 10.2 °F 1026.3 in SW 3.2 mph 17.7 mph 85 % 0.0 in
14:37 12.6 °F 10.1 °F 1026.3 in West 9.7 mph 14.5 mph 85 % 0.0 in
14:42 12.5 °F 10.0 °F 1026.3 in West 6.4 mph 14.5 mph 85 % 0.0 in
14:52 12.5 °F 10.0 °F 1026.3 in SW 1.6 mph 16.1 mph 85 % 0.0 in
14:57 12.5 °F 10.0 °F 1026.3 in West 6.4 mph 16.1 mph 85 % 0.0 in
15:02 12.6 °F 10.1 °F 1026.3 in SW 8.0 mph 16.1 mph 85 % 0.0 in
15:12 12.5 °F 10.2 °F 1026.3 in West 8.0 mph 16.1 mph 86 % 0.0 in
15:17 12.5 °F 10.2 °F 1026.3 in West 3.2 mph 14.5 mph 86 % 0.0 in
15:22 12.4 °F 10.1 °F 1026.3 in WSW 11.3 mph 14.5 mph 86 % 0.0 in
15:27 12.4 °F 10.3 °F 1026.3 in WSW 1.6 mph 14.5 mph 87 % 0.0 in
15:32 12.5 °F 10.4 °F 1026.3 in West 6.4 mph 14.5 mph 87 % 0.0 in
15:37 12.5 °F 10.4 °F 1026.3 in WSW 3.2 mph 11.3 mph 87 % 0.0 in
15:42 12.4 °F 10.3 °F 1026.3 in WSW 3.2 mph 11.3 mph 87 % 0.0 in
15:47 12.4 °F 10.3 °F 1026.3 in WSW 3.2 mph 11.3 mph 87 % 0.0 in
15:57 12.4 °F 10.5 °F 1026.0 in SW 6.4 mph 14.5 mph 88 % 0.0 in
16:02 12.4 °F 10.6 °F 1026.0 in WSW 4.8 mph 14.5 mph 89 % 0.0 in
16:12 12.2 °F 10.8 °F 1026.0 in WSW 9.7 mph 16.1 mph 91 % 0.0 in
16:17 12.1 °F 10.7 °F 1026.0 in SSW 8.0 mph 12.9 mph 91 % 0.0 in
16:22 12.1 °F 10.8 °F 1026.0 in SW 8.0 mph 12.9 mph 92 % 0.0 in
16:27 12.0 °F 10.7 °F 1026.0 in WSW 1.6 mph 17.7 mph 92 % 0.0 in
16:32 12.0 °F 10.7 °F 1026.0 in Calm   17.7 mph 92 % 0.0 in
16:37 11.9 °F 10.6 °F 1026.0 in SW 12.9 mph 16.1 mph 92 % 0.0 in
16:42 11.9 °F 10.8 °F 1026.0 in SW 4.8 mph 16.1 mph 93 % 0.0 in
16:47 11.8 °F 10.7 °F 1026.0 in SW 6.4 mph 16.1 mph 93 % 0.0 in
16:52 11.8 °F 10.7 °F 1026.0 in West 3.2 mph 16.1 mph 93 % 0.0 in
17:02 11.8 °F 10.7 °F 1026.0 in WSW 6.4 mph 12.9 mph 93 % 0.0 in
17:07 11.9 °F 10.8 °F 1026.0 in WSW 4.8 mph 11.3 mph 93 % 0.0 in
17:12 11.9 °F 10.6 °F 1026.0 in SW 6.4 mph 11.3 mph 92 % 0.0 in
17:17 11.9 °F 10.6 °F 1026.0 in WSW 11.3 mph 14.5 mph 92 % 0.0 in
17:22 12.0 °F 10.7 °F 1026.0 in WSW 9.7 mph 14.5 mph 92 % 0.0 in
17:32 12.1 °F 10.8 °F 1026.0 in SW 6.4 mph 14.5 mph 92 % 0.0 in
17:42 12.1 °F 10.8 °F 1026.0 in SW 3.2 mph 16.1 mph 92 % 0.0 in
17:47 12.1 °F 10.8 °F 1026.0 in WSW 4.8 mph 11.3 mph 92 % 0.0 in
17:52 12.1 °F 10.7 °F 1026.0 in SW 6.4 mph 11.3 mph 91 % 0.0 in
17:57 12.1 °F 10.7 °F 1026.0 in South 3.2 mph 11.3 mph 91 % 0.0 in
18:02 12.2 °F 10.8 °F 1026.0 in WSW 11.3 mph 11.3 mph 91 % 0.0 in
18:12 12.2 °F 10.8 °F 1026.0 in WSW 3.2 mph 12.9 mph 91 % 0.0 in
18:17 12.2 °F 10.8 °F 1026.0 in SW 3.2 mph 12.9 mph 91 % 0.0 in
18:22 12.2 °F 10.8 °F 1026.0 in WSW 6.4 mph 12.9 mph 91 % 0.0 in
18:27 12.2 °F 10.8 °F 1026.0 in SW 3.2 mph 12.9 mph 91 % 0.0 in
18:32 12.2 °F 10.8 °F 1026.0 in SW 1.6 mph 8.0 mph 91 % 0.0 in
18:37 12.2 °F 10.8 °F 1026.0 in SW 1.6 mph 8.0 mph 91 % 0.0 in
18:42 12.2 °F 10.8 °F 1026.0 in SW 3.2 mph 8.0 mph 91 % 0.0 in
18:47 12.2 °F 10.8 °F 1026.3 in SW 3.2 mph 6.4 mph 91 % 0.0 in
18:52 12.2 °F 10.8 °F 1026.3 in SW 1.6 mph 6.4 mph 91 % 0.0 in
18:57 12.2 °F 10.9 °F 1026.3 in SSW 4.8 mph 6.4 mph 92 % 0.0 in
19:02 12.2 °F 10.9 °F 1026.3 in SSW 1.6 mph 6.4 mph 92 % 0.0 in
19:12 12.2 °F 10.9 °F 1026.6 in SSW 3.2 mph 6.4 mph 92 % 0.0 in
19:17 12.1 °F 10.8 °F 1026.6 in South 3.2 mph 6.4 mph 92 % 0.0 in
19:22 12.1 °F 10.8 °F 1026.6 in SSW 6.4 mph 6.4 mph 92 % 0.0 in
19:27 12.1 °F 10.8 °F 1026.6 in SW 4.8 mph 6.4 mph 92 % 0.0 in
19:32 12.1 °F 10.8 °F 1026.6 in SSW 1.6 mph 6.4 mph 92 % 0.0 in
19:37 12.1 °F 10.8 °F 1026.6 in SW 3.2 mph 6.4 mph 92 % 0.0 in
19:42 12.0 °F 10.7 °F 1026.6 in SSW 3.2 mph 6.4 mph 92 % 0.0 in
19:47 11.9 °F 10.8 °F 1026.6 in SSW 3.2 mph 8.0 mph 93 % 0.0 in
19:52 11.9 °F 10.8 °F 1026.6 in SSW 1.6 mph 8.0 mph 93 % 0.0 in
19:57 11.8 °F 10.7 °F 1026.6 in SSW 1.6 mph 8.0 mph 93 % 0.0 in
20:02 11.8 °F 10.9 °F 1026.6 in SSW 4.8 mph 8.0 mph 94 % 0.0 in
20:07 11.7 °F 10.8 °F 1026.6 in SSW 3.2 mph 8.0 mph 94 % 0.0 in
20:12 11.7 °F 10.8 °F 1026.6 in SSW 6.4 mph 8.0 mph 94 % 0.0 in
20:17 11.7 °F 10.8 °F 1026.6 in SSW 1.6 mph 8.0 mph 94 % 0.0 in
20:22 11.6 °F 10.7 °F 1026.6 in SSE 3.2 mph 8.0 mph 94 % 0.0 in
20:32 11.6 °F 10.8 °F 1026.6 in Calm   6.4 mph 95 % 0.0 in
20:37 11.6 °F 10.8 °F 1026.6 in SSW 1.6 mph 4.8 mph 95 % 0.0 in
20:42 11.6 °F 10.8 °F 1026.6 in SSW 4.8 mph 4.8 mph 95 % 0.0 in
20:47 11.6 °F 10.8 °F 1026.6 in SSW 4.8 mph 9.7 mph 95 % 0.0 in
20:52 11.6 °F 10.8 °F 1026.6 in SW 4.8 mph 9.7 mph 95 % 0.0 in
20:57 11.6 °F 10.8 °F 1026.6 in SSW 3.2 mph 8.0 mph 95 % 0.0 in
21:02 11.6 °F 10.8 °F 1026.6 in SW 6.4 mph 8.0 mph 95 % 0.0 in
21:12 11.5 °F 10.7 °F 1026.6 in South 1.6 mph 9.7 mph 95 % 0.3 in
21:17 11.5 °F 10.7 °F 1026.6 in SSW 3.2 mph 9.7 mph 95 % 0.3 in
21:22 11.5 °F 10.7 °F 1026.6 in SSW 3.2 mph 9.7 mph 95 % 0.3 in
21:32 11.4 °F 10.8 °F 1026.6 in SSW 3.2 mph 8.0 mph 96 % 0.3 in
21:37 11.4 °F 10.8 °F 1026.6 in South 3.2 mph 11.3 mph 96 % 0.3 in
21:42 11.4 °F 10.8 °F 1026.6 in SSW 1.6 mph 11.3 mph 96 % 0.3 in
21:47 11.4 °F 10.8 °F 1026.6 in SW 4.8 mph 8.0 mph 96 % 0.3 in
22:02 11.4 °F 10.8 °F 1026.6 in SSW 4.8 mph 9.7 mph 96 % 0.3 in
22:07 11.4 °F 10.8 °F 1026.6 in SSW 4.8 mph 8.0 mph 96 % 0.0 in
22:12 11.4 °F 10.8 °F 1026.6 in SW 8.0 mph 8.0 mph 96 % 0.0 in
22:17 11.4 °F 10.8 °F 1026.6 in South 4.8 mph 9.7 mph 96 % 0.0 in
22:22 11.4 °F 10.8 °F 1026.6 in SSW 9.7 mph 9.7 mph 96 % 0.0 in
22:32 11.4 °F 10.8 °F 1026.6 in SSW 3.2 mph 9.7 mph 96 % 0.0 in
22:37 11.4 °F 10.8 °F 1026.6 in SSW 6.4 mph 9.7 mph 96 % 0.0 in
22:42 11.5 °F 10.9 °F 1026.6 in SW 1.6 mph 9.7 mph 96 % 0.0 in
22:47 11.5 °F 10.9 °F 1026.6 in SSW 4.8 mph 9.7 mph 96 % 0.0 in
22:52 11.6 °F 11.0 °F 1026.6 in SW 4.8 mph 9.7 mph 96 % 0.0 in
22:57 11.6 °F 11.0 °F 1026.6 in SSW 6.4 mph 11.3 mph 96 % 0.0 in
23:02 11.6 °F 11.0 °F 1026.6 in SSW 3.2 mph 11.3 mph 96 % 0.0 in
23:12 11.6 °F 11.0 °F 1026.6 in SW 8.0 mph 11.3 mph 96 % 0.3 in
23:17 11.6 °F 11.0 °F 1026.6 in SW 4.8 mph 11.3 mph 96 % 0.3 in
23:22 11.6 °F 11.1 °F 1026.6 in SSW 3.2 mph 11.3 mph 97 % 0.3 in
23:27 11.6 °F 11.1 °F 1026.6 in SSW 4.8 mph 9.7 mph 97 % 0.3 in
23:32 11.6 °F 11.1 °F 1026.6 in SW 4.8 mph 9.7 mph 97 % 0.3 in
23:42 11.6 °F 11.1 °F 1026.6 in SSW 4.8 mph 9.7 mph 97 % 0.3 in
23:47 11.7 °F 11.2 °F 1026.6 in SW 3.2 mph 9.7 mph 97 % 0.3 in
23:52 11.7 °F 11.2 °F 1026.6 in SW 3.2 mph 9.7 mph 97 % 0.3 in
Meteo18
Compliments of Weather Underground - 4 mb

Script developed by  Jim McMurry - jmcmurry@mwt.net Adapted for the template by  Wim van der Kuil - Leuven-Template.eu

You find our weather info also at:

European Weather Network

Weather Underground

Equipment we use:

Weather-station
Davis Vue

Weather-program
Meteobridge

Weather-server
Raspberry PI 2 B+

Provider
1 and 1

Davis Vue

Meteobridge

Raspberry PI 2 B+

1 and 1